Wetterdaten: Dienstag, 29.05.2007
Datum Zeit Temp. A. Feuchte A. Luftdruck Regen Wind Richtung Richtung Sonnenschein UV Solar Windben
29.05.2007 00:00 13,5 C 88 % 999,2 hPa 0,0 mm 1,6 km/h (1 Bft) W-SW 247 0 min 0 UV-I 0 W/m 4,8 km/h (1 Bft)
29.05.2007 00:10 13,5 C 88 % 999,3 hPa 0,0 mm 0,0 km/h (0 Bft) W-SW 247 0 min 0 UV-I 0 W/m 3,2 km/h (1 Bft)
29.05.2007 00:20 13,4 C 89 % 999,1 hPa 0,0 mm 0,0 km/h (0 Bft) W-SW 247 0 min 0 UV-I 0 W/m 3,2 km/h (1 Bft)
29.05.2007 00:30 13,4 C 89 % 999,0 hPa 0,0 mm 0,0 km/h (0 Bft) W-SW 247 0 min 0 UV-I 0 W/m 3,2 km/h (1 Bft)
29.05.2007 00:40 13,4 C 89 % 998,9 hPa 0,0 mm 0,0 km/h (0 Bft) W-SW 247 0 min 0 UV-I 0 W/m 4,8 km/h (1 Bft)
29.05.2007 00:50 13,4 C 89 % 998,7 hPa 0,0 mm 0,0 km/h (0 Bft) W 270 0 min 0 UV-I 0 W/m 3,2 km/h (1 Bft)
29.05.2007 01:00 13,4 C 89 % 998,6 hPa 0,0 mm 0,0 km/h (0 Bft) W 270 0 min 0 UV-I 0 W/m 4,8 km/h (1 Bft)
29.05.2007 01:10 13,4 C 89 % 998,7 hPa 0,0 mm 1,6 km/h (1 Bft) W 270 0 min 0 UV-I 0 W/m 4,8 km/h (1 Bft)
29.05.2007 01:20 13,3 C 89 % 998,7 hPa 0,0 mm 1,6 km/h (1 Bft) W-SW 247 0 min 0 UV-I 0 W/m 4,8 km/h (1 Bft)
29.05.2007 01:30 13,3 C 89 % 998,6 hPa 0,0 mm 0,0 km/h (0 Bft) W-SW 247 0 min 0 UV-I 0 W/m 4,8 km/h (1 Bft)
29.05.2007 01:40 13,3 C 89 % 998,7 hPa 0,0 mm 1,6 km/h (1 Bft) W-NW 292 0 min 0 UV-I 0 W/m 6,4 km/h (2 Bft)
29.05.2007 01:50 13,3 C 89 % 998,6 hPa 0,0 mm 1,6 km/h (1 Bft) W 270 0 min 0 UV-I 0 W/m 6,4 km/h (2 Bft)
29.05.2007 02:00 13,2 C 89 % 998,5 hPa 0,0 mm 1,6 km/h (1 Bft) W 270 0 min 0 UV-I 0 W/m 8,0 km/h (2 Bft)
29.05.2007 02:10 13,2 C 89 % 998,5 hPa 0,0 mm 0,0 km/h (0 Bft) W-SW 247 0 min 0 UV-I 0 W/m 3,2 km/h (1 Bft)
29.05.2007 02:20 13,1 C 90 % 998,5 hPa 0,0 mm 1,6 km/h (1 Bft) W-NW 292 0 min 0 UV-I 0 W/m 6,4 km/h (2 Bft)
29.05.2007 02:30 13,1 C 90 % 998,5 hPa 0,0 mm 0,0 km/h (0 Bft) W-NW 292 0 min 0 UV-I 0 W/m 3,2 km/h (1 Bft)
29.05.2007 02:40 13,1 C 90 % 998,4 hPa 0,0 mm 1,6 km/h (1 Bft) W 270 0 min 0 UV-I 0 W/m 6,4 km/h (2 Bft)
29.05.2007 02:50 13,1 C 90 % 998,6 hPa 0,0 mm 1,6 km/h (1 Bft) W-NW 292 0 min 0 UV-I 0 W/m 6,4 km/h (2 Bft)
29.05.2007 03:00 13,1 C 90 % 998,6 hPa 0,0 mm 1,6 km/h (1 Bft) W 270 0 min 0 UV-I 0 W/m 6,4 km/h (2 Bft)
29.05.2007 03:10 13,1 C 90 % 998,6 hPa 0,0 mm 1,6 km/h (1 Bft) W-NW 292 0 min 0 UV-I 0 W/m 9,7 km/h (2 Bft)
29.05.2007 03:20 13,1 C 90 % 998,7 hPa 0,0 mm 1,6 km/h (1 Bft) W 270 0 min 0 UV-I 0 W/m 4,8 km/h (1 Bft)
29.05.2007 03:30 13,1 C 90 % 998,6 hPa 0,0 mm 1,6 km/h (1 Bft) W-SW 247 0 min 0 UV-I 0 W/m 6,4 km/h (2 Bft)
29.05.2007 03:40 13,1 C 90 % 998,4 hPa 0,0 mm 1,6 km/h (1 Bft) W-NW 292 0 min 0 UV-I 0 W/m 8,0 km/h (2 Bft)
29.05.2007 03:50 13,0 C 90 % 998,4 hPa 0,0 mm 1,6 km/h (1 Bft) W 270 0 min 0 UV-I 0 W/m 6,4 km/h (2 Bft)
29.05.2007 04:00 12,9 C 90 % 998,3 hPa 0,0 mm 3,2 km/h (1 Bft) W-SW 247 0 min 0 UV-I 0 W/m 11,3 km/h (2 Bft)
29.05.2007 04:10 12,9 C 90 % 998,2 hPa 0,0 mm 1,6 km/h (1 Bft) W 270 0 min 0 UV-I 0 W/m 8,0 km/h (2 Bft)
29.05.2007 04:20 12,9 C 90 % 998,2 hPa 0,0 mm 1,6 km/h (1 Bft) W 270 0 min 0 UV-I 0 W/m 6,4 km/h (2 Bft)
29.05.2007 04:30 12,9 C 90 % 998,2 hPa 0,0 mm 3,2 km/h (1 Bft) W 270 0 min 0 UV-I 0 W/m 9,7 km/h (2 Bft)
29.05.2007 04:40 12,9 C 90 % 998,3 hPa 0,0 mm 1,6 km/h (1 Bft) W 270 0 min 0 UV-I 0 W/m 8,0 km/h (2 Bft)
29.05.2007 04:50 12,9 C 90 % 998,3 hPa 0,0 mm 1,6 km/h (1 Bft) W-NW 292 0 min 0 UV-I 0 W/m 9,7 km/h (2 Bft)
29.05.2007 05:00 12,8 C 90 % 998,3 hPa 0,0 mm 1,6 km/h (1 Bft) W-NW 292 0 min 0 UV-I 0 W/m 6,4 km/h (2 Bft)
29.05.2007 05:10 12,8 C 90 % 998,2 hPa 0,0 mm 1,6 km/h (1 Bft) W-SW 247 0 min 0 UV-I 0 W/m 6,4 km/h (2 Bft)
29.05.2007 05:20 12,9 C 90 % 998,1 hPa 0,0 mm 1,6 km/h (1 Bft) W 270 0 min 0 UV-I 0 W/m 11,3 km/h (2 Bft)
29.05.2007 05:30 12,8 C 90 % 998,2 hPa 0,0 mm 3,2 km/h (1 Bft) W-SW 247 0 min 0 UV-I 0 W/m 11,3 km/h (2 Bft)
29.05.2007 05:40 12,8 C 90 % 998,2 hPa 0,0 mm 3,2 km/h (1 Bft) W-SW 247 0 min 0 UV-I 0 W/m 9,7 km/h (2 Bft)
29.05.2007 05:50 12,8 C 90 % 998,3 hPa 0,0 mm 3,2 km/h (1 Bft) W-NW 292 0 min 0 UV-I 0 W/m 11,3 km/h (2 Bft)
29.05.2007 06:00 12,7 C 90 % 998,4 hPa 0,0 mm 1,6 km/h (1 Bft) W-NW 292 0 min 0 UV-I 0 W/m 9,7 km/h (2 Bft)
29.05.2007 06:10 12,7 C 89 % 998,4 hPa 0,0 mm 3,2 km/h (1 Bft) W 270 0 min 0 UV-I 0 W/m 9,7 km/h (2 Bft)
29.05.2007 06:20 12,7 C 89 % 998,4 hPa 0,0 mm 1,6 km/h (1 Bft) W 270 0 min 0 UV-I 5 W/m 8,0 km/h (2 Bft)
29.05.2007 06:30 12,7 C 89 % 998,4 hPa 0,0 mm 3,2 km/h (1 Bft) W-NW 292 0 min 0 UV-I 11 W/m 9,7 km/h (2 Bft)
29.05.2007 06:40 12,7 C 89 % 998,5 hPa 0,0 mm 3,2 km/h (1 Bft) W-NW 292 0 min 0 UV-I 12 W/m 11,3 km/h (2 Bft)
29.05.2007 06:50 12,8 C 89 % 998,6 hPa 0,0 mm 3,2 km/h (1 Bft) W-SW 247 0 min 0 UV-I 12 W/m 8,0 km/h (2 Bft)
29.05.2007 07:00 12,8 C 89 % 998,7 hPa 0,0 mm 1,6 km/h (1 Bft) W 270 0 min 0 UV-I 12 W/m 6,4 km/h (2 Bft)
29.05.2007 07:10 12,8 C 89 % 998,6 hPa 0,0 mm 1,6 km/h (1 Bft) W-NW 292 0 min 0 UV-I 14 W/m 6,4 km/h (2 Bft)
29.05.2007 07:20 12,8 C 88 % 998,7 hPa 0,0 mm 3,2 km/h (1 Bft) W-SW 247 0 min 0 UV-I 26 W/m 9,7 km/h (2 Bft)
29.05.2007 07:30 12,7 C 88 % 998,6 hPa 0,0 mm 1,6 km/h (1 Bft) W-SW 247 0 min 0 UV-I 30 W/m 9,7 km/h (2 Bft)
29.05.2007 07:40 12,7 C 88 % 998,8 hPa 0,0 mm 1,6 km/h (1 Bft) W 270 0 min 0 UV-I 26 W/m 8,0 km/h (2 Bft)
29.05.2007 07:50 12,7 C 88 % 998,8 hPa 0,0 mm 3,2 km/h (1 Bft) W-SW 247 0 min 0 UV-I 26 W/m 8,0 km/h (2 Bft)
29.05.2007 08:00 12,7 C 87 % 998,8 hPa 0,0 mm 3,2 km/h (1 Bft) W-SW 247 0 min 0 UV-I 35 W/m 9,7 km/h (2 Bft)
29.05.2007 08:10 12,7 C 87 % 998,8 hPa 0,0 mm 3,2 km/h (1 Bft) W 270 0 min 0 UV-I 46 W/m 9,7 km/h (2 Bft)
29.05.2007 08:20 12,7 C 87 % 998,8 hPa 0,0 mm 3,2 km/h (1 Bft) W 270 0 min 0 UV-I 51 W/m 8,0 km/h (2 Bft)
29.05.2007 08:30 12,7 C 87 % 998,9 hPa 0,0 mm 3,2 km/h (1 Bft) W-NW 292 0 min 0 UV-I 47 W/m 9,7 km/h (2 Bft)
29.05.2007 08:40 12,6 C 87 % 999,0 hPa 0,0 mm 3,2 km/h (1 Bft) W 270 0 min 0 UV-I 33 W/m 9,7 km/h (2 Bft)
29.05.2007 08:50 12,5 C 88 % 999,0 hPa 0,0 mm 3,2 km/h (1 Bft) W 270 0 min 0 UV-I 40 W/m 11,3 km/h (2 Bft)
29.05.2007 09:00 12,4 C 89 % 999,1 hPa 0,0 mm 3,2 km/h (1 Bft) W-SW 247 0 min 0 UV-I 40 W/m 9,7 km/h (2 Bft)
29.05.2007 09:10 12,4 C 89 % 999,0 hPa 0,3 mm 3,2 km/h (1 Bft) W-SW 247 0 min 0 UV-I 40 W/m 17,7 km/h (3 Bft)
29.05.2007 09:20 12,3 C 89 % 999,1 hPa 0,0 mm 3,2 km/h (1 Bft) W 270 0 min 0 UV-I 60 W/m 11,3 km/h (2 Bft)
29.05.2007 09:30 12,4 C 89 % 999,2 hPa 0,3 mm 4,8 km/h (1 Bft) W-SW 247 0 min 0 UV-I 60 W/m 14,5 km/h (3 Bft)
29.05.2007 09:40 12,3 C 90 % 999,3 hPa 0,3 mm 3,2 km/h (1 Bft) W-NW 292 0 min 0 UV-I 51 W/m 11,3 km/h (2 Bft)
29.05.2007 09:50 12,3 C 90 % 999,4 hPa 0,5 mm 3,2 km/h (1 Bft) W 270 0 min 0 UV-I 56 W/m 9,7 km/h (2 Bft)
29.05.2007 10:00 12,3 C 91 % 999,4 hPa 0,3 mm 1,6 km/h (1 Bft) W-NW 292 0 min 0 UV-I 60 W/m 14,5 km/h (3 Bft)
29.05.2007 10:10 12,2 C 91 % 999,6 hPa 0,3 mm 3,2 km/h (1 Bft) W-NW 292 0 min 0 UV-I 67 W/m 9,7 km/h (2 Bft)
29.05.2007 10:20 12,2 C 91 % 999,7 hPa 0,3 mm 1,6 km/h (1 Bft) W 270 0 min 0 UV-I 60 W/m 11,3 km/h (2 Bft)
29.05.2007 10:30 12,2 C 91 % 999,8 hPa 0,3 mm 4,8 km/h (1 Bft) NW 315 0 min 0 UV-I 62 W/m 14,5 km/h (3 Bft)
29.05.2007 10:40 12,2 C 91 % 999,8 hPa 0,5 mm 3,2 km/h (1 Bft) W 270 0 min 1 UV-I 70 W/m 9,7 km/h (2 Bft)
29.05.2007 10:50 12,1 C 91 % 999,9 hPa 0,3 mm 3,2 km/h (1 Bft) W 270 0 min 1 UV-I 67 W/m 12,9 km/h (3 Bft)
29.05.2007 11:00 12,1 C 91 % 1000,0 hPa 0,3 mm 3,2 km/h (1 Bft) W 270 0 min 0 UV-I 60 W/m 12,9 km/h (3 Bft)
29.05.2007 11:10 12,1 C 91 % 1000,0 hPa 0,3 mm 3,2 km/h (1 Bft) W 270 0 min 1 UV-I 86 W/m 9,7 km/h (2 Bft)
29.05.2007 11:20 12,1 C 92 % 1000,1 hPa 0,5 mm 3,2 km/h (1 Bft) W-NW 292 0 min 1 UV-I 102 W/m 9,7 km/h (2 Bft)
29.05.2007 11:30 12,2 C 91 % 1000,2 hPa 0,5 mm 3,2 km/h (1 Bft) W 270 0 min 1 UV-I 114 W/m 14,5 km/h (3 Bft)
29.05.2007 11:40 12,2 C 91 % 1000,2 hPa 0,3 mm 3,2 km/h (1 Bft) W 270 0 min 1 UV-I 105 W/m 9,7 km/h (2 Bft)
29.05.2007 11:50 12,2 C 92 % 1000,2 hPa 0,0 mm 3,2 km/h (1 Bft) W-NW 292 0 min 1 UV-I 88 W/m 8,0 km/h (2 Bft)
29.05.2007 12:00 12,2 C 91 % 1000,3 hPa 0,5 mm 3,2 km/h (1 Bft) W-NW 292 0 min 1 UV-I 81 W/m 9,7 km/h (2 Bft)
29.05.2007 12:10 12,2 C 91 % 1000,2 hPa 0,3 mm 3,2 km/h (1 Bft) W-SW 247 0 min 1 UV-I 109 W/m 11,3 km/h (2 Bft)
29.05.2007 12:20 12,2 C 91 % 1000,2 hPa 0,3 mm 3,2 km/h (1 Bft) W-NW 292 0 min 1 UV-I 104 W/m 16,1 km/h (3 Bft)
29.05.2007 12:30 12,2 C 91 % 1000,3 hPa 0,5 mm 3,2 km/h (1 Bft) W-SW 247 0 min 1 UV-I 121 W/m 9,7 km/h (2 Bft)
29.05.2007 12:40 12,2 C 91 % 1000,5 hPa 0,0 mm 4,8 km/h (1 Bft) W 270 0 min 1 UV-I 88 W/m 14,5 km/h (3 Bft)
29.05.2007 12:50 12,2 C 91 % 1000,6 hPa 0,0 mm 3,2 km/h (1 Bft) W 270 0 min 1 UV-I 148 W/m 9,7 km/h (2 Bft)
29.05.2007 13:00 12,2 C 91 % 1000,6 hPa 0,3 mm 3,2 km/h (1 Bft) W 270 0 min 1 UV-I 144 W/m 16,1 km/h (3 Bft)
29.05.2007 13:10 12,2 C 91 % 1000,8 hPa 0,0 mm 4,8 km/h (1 Bft) W-SW 247 0 min 1 UV-I 111 W/m 16,1 km/h (3 Bft)
29.05.2007 13:20 12,0 C 91 % 1000,9 hPa 0,5 mm 3,2 km/h (1 Bft) W-NW 292 0 min 0 UV-I 51 W/m 11,3 km/h (2 Bft)
29.05.2007 13:30 11,9 C 91 % 1001,1 hPa 0,5 mm 3,2 km/h (1 Bft) W 270 0 min 0 UV-I 46 W/m 12,9 km/h (3 Bft)
29.05.2007 13:40 11,8 C 91 % 1001,3 hPa 0,5 mm 3,2 km/h (1 Bft) W 270 0 min 1 UV-I 79 W/m 9,7 km/h (2 Bft)
29.05.2007 13:50 11,8 C 91 % 1001,4 hPa 0,3 mm 3,2 km/h (1 Bft) W-SW 247 0 min 1 UV-I 77 W/m 9,7 km/h (2 Bft)
29.05.2007 14:00 11,8 C 91 % 1001,5 hPa 0,8 mm 3,2 km/h (1 Bft) W-SW 247 0 min 1 UV-I 86 W/m 8,0 km/h (2 Bft)
29.05.2007 14:10 11,8 C 91 % 1001,6 hPa 0,5 mm 3,2 km/h (1 Bft) W 270 0 min 1 UV-I 107 W/m 9,7 km/h (2 Bft)
29.05.2007 14:20 11,8 C 92 % 1001,6 hPa 0,3 mm 3,2 km/h (1 Bft) W 270 0 min 1 UV-I 153 W/m 11,3 km/h (2 Bft)
29.05.2007 14:30 11,9 C 92 % 1001,5 hPa 0,3 mm 3,2 km/h (1 Bft) W-SW 247 0 min 1 UV-I 169 W/m 19,3 km/h (3 Bft)
29.05.2007 14:40 12,1 C 92 % 1001,5 hPa 0,3 mm 3,2 km/h (1 Bft) W-SW 247 0 min 2 UV-I 171 W/m 20,9 km/h (4 Bft)
29.05.2007 14:50 12,2 C 91 % 1001,7 hPa 0,0 mm 3,2 km/h (1 Bft) W-SW 247 0 min 1 UV-I 100 W/m 14,5 km/h (3 Bft)
29.05.2007 15:00 12,1 C 91 % 1001,7 hPa 0,0 mm 4,8 km/h (1 Bft) W 270 0 min 1 UV-I 128 W/m 12,9 km/h (3 Bft)
29.05.2007 15:10 12,1 C 91 % 1002,0 hPa 0,0 mm 4,8 km/h (1 Bft) W 270 0 min 1 UV-I 135 W/m 19,3 km/h (3 Bft)
29.05.2007 15:20 12,1 C 90 % 1002,2 hPa 0,3 mm 4,8 km/h (1 Bft) W-SW 247 0 min 1 UV-I 109 W/m 12,9 km/h (3 Bft)
29.05.2007 15:30 12,1 C 90 % 1002,2 hPa 0,0 mm 4,8 km/h (1 Bft) W 270 0 min 1 UV-I 79 W/m 11,3 km/h (2 Bft)
29.05.2007 15:40 11,9 C 90 % 1002,4 hPa 0,0 mm 6,4 km/h (2 Bft) W-SW 247 0 min 1 UV-I 88 W/m 20,9 km/h (4 Bft)
29.05.2007 15:50 11,8 C 90 % 1002,4 hPa 0,3 mm 4,8 km/h (1 Bft) W-NW 292 0 min 1 UV-I 105 W/m 11,3 km/h (2 Bft)
29.05.2007 16:00 11,8 C 90 % 1002,6 hPa 0,3 mm 4,8 km/h (1 Bft) W 270 0 min 1 UV-I 88 W/m 20,9 km/h (4 Bft)
29.05.2007 16:10 11,7 C 90 % 1002,7 hPa 0,3 mm 4,8 km/h (1 Bft) W-SW 247 0 min 1 UV-I 79 W/m 16,1 km/h (3 Bft)
29.05.2007 16:20 11,7 C 90 % 1002,8 hPa 0,0 mm 3,2 km/h (1 Bft) W 270 0 min 1 UV-I 67 W/m 9,7 km/h (2 Bft)
29.05.2007 16:30 11,6 C 90 % 1003,0 hPa 0,0 mm 4,8 km/h (1 Bft) W 270 0 min 0 UV-I 63 W/m 16,1 km/h (3 Bft)
29.05.2007 16:40 11,6 C 90 % 1003,0 hPa 0,3 mm 3,2 km/h (1 Bft) W-SW 247 0 min 0 UV-I 53 W/m 14,5 km/h (3 Bft)
29.05.2007 16:50 11,4 C 89 % 1003,3 hPa 0,3 mm 4,8 km/h (1 Bft) W-NW 292 0 min 0 UV-I 32 W/m 17,7 km/h (3 Bft)
29.05.2007 17:00 11,2 C 88 % 1003,7 hPa 0,0 mm 6,4 km/h (2 Bft) W-SW 247 0 min 1 UV-I 77 W/m 17,7 km/h (3 Bft)
29.05.2007 17:10 11,1 C 89 % 1003,8 hPa 0,3 mm 4,8 km/h (1 Bft) W 270 0 min 0 UV-I 63 W/m 16,1 km/h (3 Bft)
29.05.2007 17:20 10,9 C 90 % 1004,0 hPa 0,5 mm 3,2 km/h (1 Bft) W-SW 247 0 min 0 UV-I 44 W/m 11,3 km/h (2 Bft)
29.05.2007 17:30 10,8 C 89 % 1004,1 hPa 0,3 mm 6,4 km/h (2 Bft) W 270 0 min 0 UV-I 39 W/m 22,5 km/h (4 Bft)
29.05.2007 17:40 10,8 C 90 % 1004,1 hPa 0,3 mm 3,2 km/h (1 Bft) W-SW 247 0 min 0 UV-I 46 W/m 11,3 km/h (2 Bft)
29.05.2007 17:50 10,7 C 90 % 1004,3 hPa 0,8 mm 4,8 km/h (1 Bft) W 270 0 min 0 UV-I 32 W/m 17,7 km/h (3 Bft)
29.05.2007 18:00 10,6 C 90 % 1004,5 hPa 0,5 mm 4,8 km/h (1 Bft) W 270 0 min 0 UV-I 58 W/m 17,7 km/h (3 Bft)
29.05.2007 18:10 10,5 C 91 % 1004,6 hPa 0,5 mm 3,2 km/h (1 Bft) W-SW 247 0 min 0 UV-I 25 W/m 9,7 km/h (2 Bft)
29.05.2007 18:20 10,4 C 91 % 1004,9 hPa 0,3 mm 3,2 km/h (1 Bft) W 270 0 min 0 UV-I 30 W/m 12,9 km/h (3 Bft)
29.05.2007 18:30 10,4 C 91 % 1004,9 hPa 0,0 mm 4,8 km/h (1 Bft) W-SW 247 0 min 0 UV-I 54 W/m 16,1 km/h (3 Bft)
29.05.2007 18:40 10,4 C 90 % 1005,0 hPa 0,3 mm 4,8 km/h (1 Bft) W-SW 247 0 min 0 UV-I 46 W/m 19,3 km/h (3 Bft)
29.05.2007 18:50 10,4 C 90 % 1005,2 hPa 0,0 mm 4,8 km/h (1 Bft) W-SW 247 0 min 0 UV-I 37 W/m 19,3 km/h (3 Bft)
29.05.2007 19:00 10,3 C 89 % 1005,4 hPa 0,0 mm 3,2 km/h (1 Bft) W 270 0 min 0 UV-I 40 W/m 14,5 km/h (3 Bft)
29.05.2007 19:10 10,3 C 89 % 1005,5 hPa 0,0 mm 3,2 km/h (1 Bft) W-SW 247 0 min 0 UV-I 39 W/m 9,7 km/h (2 Bft)
29.05.2007 19:20 10,4 C 89 % 1005,5 hPa 0,5 mm 4,8 km/h (1 Bft) W 270 0 min 0 UV-I 28 W/m 14,5 km/h (3 Bft)
29.05.2007 19:30 10,3 C 88 % 1005,7 hPa 0,3 mm 3,2 km/h (1 Bft) W 270 0 min 0 UV-I 26 W/m 11,3 km/h (2 Bft)
29.05.2007 19:40 10,3 C 88 % 1005,8 hPa 0,3 mm 4,8 km/h (1 Bft) W 270 0 min 0 UV-I 28 W/m 16,1 km/h (3 Bft)
29.05.2007 19:50 10,2 C 89 % 1005,9 hPa 0,0 mm 3,2 km/h (1 Bft) W-SW 247 0 min 0 UV-I 33 W/m 11,3 km/h (2 Bft)
29.05.2007 20:00 10,2 C 89 % 1005,9 hPa 0,3 mm 4,8 km/h (1 Bft) W 270 0 min 0 UV-I 47 W/m 14,5 km/h (3 Bft)
29.05.2007 20:10 10,3 C 90 % 1006,2 hPa 0,0 mm 3,2 km/h (1 Bft) W-SW 247 0 min 0 UV-I 39 W/m 17,7 km/h (3 Bft)
29.05.2007 20:20 10,3 C 90 % 1006,3 hPa 0,0 mm 3,2 km/h (1 Bft) W-SW 247 0 min 0 UV-I 23 W/m 9,7 km/h (2 Bft)
29.05.2007 20:30 10,2 C 89 % 1006,4 hPa 0,0 mm 4,8 km/h (1 Bft) W-SW 247 0 min 0 UV-I 23 W/m 16,1 km/h (3 Bft)
29.05.2007 20:40 10,1 C 89 % 1006,6 hPa 0,0 mm 3,2 km/h (1 Bft) W-SW 247 0 min 0 UV-I 25 W/m 14,5 km/h (3 Bft)
29.05.2007 20:50 10,1 C 88 % 1006,8 hPa 0,0 mm 3,2 km/h (1 Bft) W-SW 247 0 min 0 UV-I 18 W/m 8,0 km/h (2 Bft)
29.05.2007 21:00 10,1 C 88 % 1006,9 hPa 0,0 mm 3,2 km/h (1 Bft) W-SW 247 0 min 0 UV-I 16 W/m 12,9 km/h (3 Bft)
29.05.2007 21:10 9,9 C 87 % 1006,9 hPa 0,0 mm 4,8 km/h (1 Bft) W-SW 247 10 min 0 UV-I 19 W/m 14,5 km/h (3 Bft)
29.05.2007 21:20 9,8 C 85 % 1007,1 hPa 0,0 mm 4,8 km/h (1 Bft) SW 225 0 min 0 UV-I 19 W/m 20,9 km/h (4 Bft)
29.05.2007 21:30 9,8 C 85 % 1007,2 hPa 0,0 mm 4,8 km/h (1 Bft) W-SW 247 0 min 0 UV-I 0 W/m 17,7 km/h (3 Bft)
29.05.2007 21:40 9,7 C 84 % 1007,2 hPa 0,0 mm 4,8 km/h (1 Bft) W-SW 247 0 min 0 UV-I 0 W/m 14,5 km/h (3 Bft)
29.05.2007 21:50 9,6 C 84 % 1007,3 hPa 0,0 mm 4,8 km/h (1 Bft) W-SW 247 0 min 0 UV-I 0 W/m 12,9 km/h (3 Bft)
29.05.2007 22:00 9,6 C 84 % 1007,5 hPa 0,0 mm 3,2 km/h (1 Bft) W-SW 247 0 min 0 UV-I 0 W/m 11,3 km/h (2 Bft)
29.05.2007 22:10 9,5 C 83 % 1007,7 hPa 0,0 mm 4,8 km/h (1 Bft) SW 225 0 min 0 UV-I 0 W/m 11,3 km/h (2 Bft)
29.05.2007 22:20 9,5 C 83 % 1007,8 hPa 0,0 mm 3,2 km/h (1 Bft) W-SW 247 0 min 0 UV-I 0 W/m 11,3 km/h (2 Bft)
29.05.2007 22:30 9,5 C 82 % 1008,0 hPa 0,0 mm 4,8 km/h (1 Bft) SW 225 0 min 0 UV-I 0 W/m 20,9 km/h (4 Bft)
29.05.2007 22:40 9,5 C 82 % 1008,0 hPa 0,0 mm 3,2 km/h (1 Bft) W-SW 247 0 min 0 UV-I 0 W/m 11,3 km/h (2 Bft)
29.05.2007 22:50 9,4 C 82 % 1008,1 hPa 0,0 mm 4,8 km/h (1 Bft) SW 225 0 min 0 UV-I 0 W/m 16,1 km/h (3 Bft)
29.05.2007 23:00 9,4 C 80 % 1008,3 hPa 0,0 mm 4,8 km/h (1 Bft) SW 225 0 min 0 UV-I 0 W/m 14,5 km/h (3 Bft)
29.05.2007 23:10 9,4 C 81 % 1008,3 hPa 0,0 mm 3,2 km/h (1 Bft) W-SW 247 0 min 0 UV-I 0 W/m 8,0 km/h (2 Bft)
29.05.2007 23:20 9,3 C 80 % 1008,5 hPa 0,0 mm 3,2 km/h (1 Bft) SW 225 0 min 0 UV-I 0 W/m 9,7 km/h (2 Bft)
29.05.2007 23:30 9,3 C 79 % 1008,7 hPa 0,0 mm 3,2 km/h (1 Bft) W-SW 247 0 min 0 UV-I 0 W/m 19,3 km/h (3 Bft)
29.05.2007 23:40 9,2 C 80 % 1008,7 hPa 0,0 mm 3,2 km/h (1 Bft) W-SW 247 0 min 0 UV-I 0 W/m 9,7 km/h (2 Bft)
29.05.2007 23:50 9,1 C 80 % 1008,7 hPa 0,0 mm 3,2 km/h (1 Bft) SW 225 0 min 0 UV-I 0 W/m 12,9 km/h (3 Bft)
_ Min-Zeit 23:50 23:30 05:20 - 00:10 - - - - - 00:10
Minimum _ 9,0 C 79 % 998,1 hPa - 0,0 km/h (0 Bft) - - - - - 3,2 km/h (1 Bft)
_ Max-Zeit 00:00 11:20 23:30 14:00 15:40 - - 21:10 14:40 14:40 17:30
Maximum _ 13,6 C 92 % 1008,7 hPa 0,8 mm 6,4 km/h
W-SW (2 Bft)
- - 10 min 2 UV-I 171 W/m 22,5 km/h
N (4 Bft)
Durchschnitt _ 11,8 C 89 % 1001,6 hPa #16,8 mm 3,1 km/h (1 Bft) W-SW - #10 min. 1 UV-I 62 W/m 11,3 km/h (2 Bft)